User: anonymous   Login
Location: Fisheating Creek Campgrounds
(26.9333°N, 81.3167°W)
Time: 11:37:08
(UTC-04:00)
Language:

Cosmos 2221 Rocket - Orbit

View from above orbital plane
View from above orbital plane
View from above satellite
View from above satellite

Ground track
Ground track

The orbit data is extracted from the following two-line orbital elements,

1 22237U 92080B   16269.35107571  .00000064  00000-0  56065-5 0  9995
2 22237  82.5152   4.0746 0019551 356.0908  65.2342 14.78281215284313
Epoch (UTC): 25 September 2016 08:25:32
Eccentricity: 0.0019551
inclination: 82.5152°
perigee height: 621 km
apogee height: 648 km
right ascension of ascending node: 4.0746°
argument of perigee: 356.0908°
revolutions per day: 14.78281215
mean anomaly at epoch: 65.2342°
orbit number at epoch: 28431

The dashed part of the orbit path shows where the satellite is in the earth's shadow,  

DLR